Location: Unspecified
(0.0000°N, 0.0000°E)
Time: 06:12:06
(UTC+00:00)

deb Blok Kosmos - Visible Passes

Search period start: 17 September 2024 00:00
Search period end: 27 September 2024 00:00
Orbit: 755 x 2060 km, 56.1° (Epoch: 16 September)

Date Brightness Start Highest point End Pass type
(mag) Time Alt. Az. Time Alt. Az. Time Alt. Az.
21 Sep ? 20:01:12 10° S 20:02:12 15° S 20:02:12 15° S visible
22 Sep ? 20:43:24 10° SW 20:44:48 18° SW 20:44:48 18° SW visible
23 Sep ? 19:29:08 10° S 19:33:32 33° SE 19:33:32 33° SE visible
23 Sep ? 21:27:28 10° WSW 21:27:35 11° WSW 21:27:35 11° WSW visible
24 Sep ? 20:11:14 10° SSW 20:16:32 62° SW 20:16:32 62° SW visible
25 Sep ? 18:57:04 10° S 19:02:54 34° ESE 19:05:42 27° E visible
25 Sep ? 20:55:14 10° WSW 20:59:49 29° WNW 20:59:49 29° WNW visible
26 Sep ? 05:27:36 10° NE 05:29:39 11° NE 05:31:38 10° ENE visible
26 Sep ? 19:39:06 10° SSW 19:45:43 86° WNW 19:49:17 39° NNE visible
26 Sep ? 21:43:15 10° WNW 21:43:25 10° WNW 21:43:25 10° WNW visible
